Location: Arbon
(43.0005°N, 0.7472°E)
Time: 08:01:36
(UTC+00:00)

SR - Pass Details

Date: 05 December 2020
Orbit: 575 x 880 km, 66.7° (Epoch: 27 January)

Event Time Altitude Azimuth Distance (km) Brightness Sun altitude
Rises 23:11:42 0° 341° (NNW) 3,160 - -68.2°
Reaches altitude 10° 23:15:40 10° 11° (NNE) 2,314 - -68.4°
Maximum altitude 23:17:45 12° 35° (NE) 2,200 - -68.6°
Drops below altitude 10° 23:19:54 10° 58° (ENE) 2,388 - -68.7°
Sets 23:24:08 0° 88° (E) 3,383 - -68.9°
